Weather History for K4O4 - May, 2013

Change the Weather History Date:

Friday, May 10, 2013

  Actual Average (KDEQ) Record (KDEQ)
Temperature  
Mean Temperature 70 °F 68 °F  
Max Temperature 80 °F 80 °F 93 °F (1973)
Min Temperature 59 °F 57 °F 41 °F (1961)
Degree Days  
Heating Degree Days 0 1  
Month to date heating degree days 16  
Since 1 July heating degree days 3037  
Cooling Degree Days 4 4  
Month to date cooling degree days 35  
Year to date cooling degree days 82  
Growing Degree Days 20 (Base 50)    
Moisture  
Dew Point 61 °F    
Average Humidity 79    
Maximum Humidity 100    
Minimum Humidity 51    
Precipitation  
Precipitation 0.05 in 0.19 in 3.18 in (2009)
Month to date precipitation 2.24  
Year to date precipitation 17.81  
Snow  
Snow 0.00 in - - ()
Month to date snowfall  
Since 1 July snowfall  
Snow Depth -    
Sea Level Pressure  
Sea Level Pressure 29.95 in    
Wind  
Wind Speed 3 mph (NNW)    
Max Wind Speed 10 mph    
Max Gust Speed -    
Visibility 7 miles    
Events      
T = Trace of Precipitation, MM = Missing Value Source: NWS Daily Summary

Daily Weather History Graph

Daily Weather History Graph

Search for Another Location

Airport or City:

Trip Planner

Search our weather history database for the weather conditions in past years. The results will help you decide how hot, cold, wet, or windy it might be!

Date:

Astronomy

May. 10, 2013 Rise Set
Actual Time 6:21 AM CDT 8:10 PM CDT
Civil Twilight 5:54 AM CDT 8:37 PM CDT
Nautical Twilight 5:21 AM CDT 9:10 PM CDT
Astronomical Twilight 4:46 AM CDT 9:45 PM CDT
Moon 6:47 AM CDT (5/10) 8:59 PM CDT (5/10)
Length of Visible Light 14h 43m
Length of Day
13h 48m
New Moon, 0% of the Moon is Illuminated
May 10
New Moon
May 17
First Quarter
May 24
Full
May 31
Last Quarter
Jun 8
New

Hourly Weather History & Observations

Time (CDT) Temp. Heat Index Dew Point Humidity Pressure Visibility Wind Dir Wind Speed Gust Speed Precip Events Conditions
12:35 AM 60.8 °F - 59.0 °F 94% 29.94 in 2.0 mi Calm Calm - N/A   Overcast
1:15 AM 62.6 °F - 60.8 °F 94% 29.92 in 3.0 mi Calm Calm - N/A   Mostly Cloudy
1:35 AM 62.6 °F - 60.8 °F 94% 29.92 in 2.0 mi North 4.6 mph - N/A   Overcast
1:55 AM 60.8 °F - 60.8 °F 100% 29.92 in 1.0 mi North 3.5 mph - N/A   Overcast
2:15 AM 62.6 °F - 60.8 °F 94% 29.91 in 0.5 mi Calm Calm - 0.01 in   Overcast
2:35 AM 60.8 °F - 60.8 °F 100% 29.91 in 1.8 mi Calm Calm - 0.03 in   Mostly Cloudy
2:55 AM 62.6 °F - 60.8 °F 94% 29.91 in 3.0 mi Calm Calm - 0.03 in   Mostly Cloudy
3:15 AM 62.6 °F - 60.8 °F 94% 29.92 in 3.0 mi East 3.5 mph - N/A   Overcast
3:55 AM 60.8 °F - 60.8 °F 100% 29.92 in 2.5 mi Calm Calm - N/A   Overcast
4:15 AM 60.8 °F - 60.8 °F 100% 29.91 in 1.0 mi NNW 3.5 mph - N/A   Overcast
4:35 AM 60.8 °F - 59.0 °F 94% 29.91 in 1.2 mi Calm Calm - N/A   Mostly Cloudy
4:55 AM 60.8 °F - 59.0 °F 94% 29.90 in 0.2 mi NNE 4.6 mph - N/A   Overcast
5:15 AM 60.8 °F - 59.0 °F 94% 29.90 in 2.0 mi East 3.5 mph - N/A   Overcast
5:35 AM 60.8 °F - 59.0 °F 94% 29.91 in 2.0 mi Calm Calm - N/A   Overcast
6:15 AM 59.0 °F - 59.0 °F 100% 29.92 in 0.2 mi North 3.5 mph - N/A   Mostly Cloudy
6:35 AM 59.0 °F - 57.2 °F 94% 29.95 in 0.8 mi Calm Calm - N/A   Mostly Cloudy
7:15 AM 60.8 °F - 59.0 °F 94% 29.97 in 0.8 mi Calm Calm - N/A   Overcast
7:35 AM 60.8 °F - 59.0 °F 94% 29.98 in 1.5 mi Calm Calm - N/A   Overcast
8:15 AM 62.6 °F - 62.6 °F 100% 29.97 in 4.0 mi Calm Calm - N/A   Mostly Cloudy
8:35 AM 64.4 °F - 62.6 °F 94% 29.97 in 7.0 mi North 3.5 mph - N/A   Mostly Cloudy
8:55 AM 64.4 °F - 62.6 °F 94% 29.97 in 5.0 mi NNW 4.6 mph - N/A   Mostly Cloudy
9:15 AM 64.4 °F - 62.6 °F 94% 29.97 in 7.0 mi North 4.6 mph - N/A   Overcast
9:35 AM 64.4 °F - 64.4 °F 100% 29.97 in 10.0 mi Calm Calm - N/A   Mostly Cloudy
9:55 AM 64.4 °F - 64.4 °F 100% 29.98 in 10.0 mi Calm Calm - N/A   Overcast
10:15 AM 66.2 °F - 64.4 °F 94% 29.98 in 10.0 mi Calm Calm - N/A   Overcast
10:35 AM 69.8 °F - 64.4 °F 83% 29.97 in 10.0 mi SW 3.5 mph - N/A   Scattered Clouds
10:55 AM 69.8 °F - 64.4 °F 83% 29.97 in 10.0 mi Calm Calm - N/A   Clear
11:15 AM 69.8 °F - 64.4 °F 83% 29.98 in 10.0 mi Calm Calm - N/A   Clear
11:35 AM 71.6 °F - 62.6 °F 73% 29.98 in 10.0 mi WSW 3.5 mph - N/A   Scattered Clouds
12:15 PM 73.4 °F - 64.4 °F 73% 29.97 in 10.0 mi West 4.6 mph - N/A   Scattered Clouds
12:35 PM 73.4 °F - 64.4 °F 73% 29.96 in 10.0 mi SW 4.6 mph - N/A   Scattered Clouds
12:55 PM 75.2 °F - 64.4 °F 69% 29.96 in 10.0 mi West 5.8 mph - N/A   Scattered Clouds
1:15 PM 77.0 °F - 62.6 °F 61% 29.96 in 10.0 mi WNW 4.6 mph - N/A   Scattered Clouds
1:35 PM 77.0 °F - 62.6 °F 61% 29.96 in 10.0 mi WSW 4.6 mph - N/A   Scattered Clouds
1:55 PM 78.8 °F - 62.6 °F 57% 29.95 in 10.0 mi West 3.5 mph - N/A   Clear
2:15 PM 80.6 °F 81.5 °F 60.8 °F 51% 29.95 in 10.0 mi WSW 6.9 mph - N/A   Scattered Clouds
2:35 PM 80.6 °F 81.8 °F 62.6 °F 54% 29.95 in 10.0 mi West 8.1 mph - N/A   Scattered Clouds
2:55 PM 80.6 °F 81.5 °F 60.8 °F 51% 29.94 in 10.0 mi West 5.8 mph - N/A   Scattered Clouds
3:15 PM 80.6 °F 81.5 °F 60.8 °F 51% 29.94 in 10.0 mi NW 5.8 mph - N/A   Clear
3:35 PM 77.0 °F - 60.8 °F 57% 29.95 in 10.0 mi NW 10.4 mph - N/A   Scattered Clouds
3:55 PM 71.6 °F - 64.4 °F 78% 29.94 in 4.0 mi NW 8.1 mph - 0.02 in   Scattered Clouds
4:15 PM 71.6 °F - 64.4 °F 78% 29.94 in 10.0 mi NW 4.6 mph - N/A   Scattered Clouds
4:35 PM 75.2 °F - 62.6 °F 65% 29.92 in 10.0 mi NW 3.5 mph - N/A   Clear
4:55 PM 77.0 °F - 60.8 °F 57% 29.92 in 10.0 mi NNW 10.4 mph - N/A   Clear
5:35 PM 77.0 °F - 60.8 °F 57% 29.92 in 10.0 mi North 6.9 mph - N/A   Clear
5:55 PM 78.8 °F - 60.8 °F 54% 29.92 in 10.0 mi North 4.6 mph - N/A   Clear
6:15 PM 78.8 °F - 60.8 °F 54% 29.92 in 10.0 mi North 9.2 mph - N/A   Scattered Clouds
6:35 PM 77.0 °F - 59.0 °F 54% 29.92 in 10.0 mi North 8.1 mph - N/A   Clear
6:55 PM 77.0 °F - 59.0 °F 54% 29.92 in 10.0 mi North 6.9 mph - N/A   Clear
7:15 PM 75.2 °F - 60.8 °F 61% 29.93 in 10.0 mi North 3.5 mph - N/A   Clear
7:35 PM 73.4 °F - 59.0 °F 61% 29.93 in 10.0 mi North 4.6 mph - N/A   Clear
7:55 PM 71.6 °F - 59.0 °F 64% 29.94 in 10.0 mi North 3.5 mph - N/A   Clear
8:15 PM 69.8 °F - 60.8 °F 73% 29.96 in 10.0 mi North 5.8 mph - N/A   Clear
8:35 PM 68.0 °F - 59.0 °F 73% 29.97 in 10.0 mi North 5.8 mph - N/A   Clear
8:55 PM 68.0 °F - 59.0 °F 73% 29.97 in 10.0 mi North 4.6 mph - N/A   Clear
9:15 PM 66.2 °F - 59.0 °F 78% 29.97 in 10.0 mi North 4.6 mph - N/A   Clear
9:35 PM 64.4 °F - 59.0 °F 83% 29.99 in 10.0 mi North 3.5 mph - N/A   Clear
9:55 PM 64.4 °F - 59.0 °F 83% 30.01 in 10.0 mi North 4.6 mph - N/A   Clear
10:15 PM 64.4 °F - 57.2 °F 77% 30.01 in 10.0 mi North 5.8 mph - N/A   Clear
10:35 PM 64.4 °F - 57.2 °F 77% 30.02 in 10.0 mi North 5.8 mph - N/A   Clear
10:55 PM 64.4 °F - 57.2 °F 77% 30.02 in 10.0 mi North 6.9 mph - N/A   Clear
11:15 PM 62.6 °F - 57.2 °F 82% 30.03 in 10.0 mi North 5.8 mph - N/A   Clear
11:35 PM 62.6 °F - 55.4 °F 77% 30.03 in 10.0 mi North 4.6 mph - N/A   Clear
11:55 PM 62.6 °F - 55.4 °F 77% 30.03 in 10.0 mi North 5.8 mph - N/A   Clear